When you browse on this site, cookies collect data to enhance your experience and personalize the content and advertising you see.
Visit our Privacy Policy to learn more. By continuing to use the site, you agree to this use of cookies and data.
  • In Latvia
  • List of Countries
  • For 7 days
  • Water Temperature
  • Weather Map
  • Weather Widgets
  • user-avatar
    Login

    Hourly Weather Batina

    Today, 16 December, Monday

    Time Temperature Precipitation Wind Pressure Humidity
    00:00 +9°C° 0 mm 3 mps 671 mmHg 62%
    01:00 +8°C° 0 mm 3 mps 671 mmHg 65%
    02:00 +8°C° 0 mm 3 mps 670 mmHg 67%
    03:00 +8°C° 0 mm 3 mps 670 mmHg 69%
    04:00 +8°C° 0 mm 3 mps 670 mmHg 70%
    05:00 +7°C° 0 mm 3 mps 670 mmHg 71%
    06:00 +7°C° 0 mm 2 mps 670 mmHg 72%
    07:00 +9°C° 0 mm 3 mps 670 mmHg 67%
    08:00 +10°C° 0 mm 3 mps 671 mmHg 62%
    09:00 +12°C° 0 mm 3 mps 671 mmHg 57%
    10:00 +13°C° 0 mm 4 mps 671 mmHg 52%
    11:00 +14°C° 0 mm 4 mps 671 mmHg 47%
    12:00 +15°C° 0 mm 5 mps 671 mmHg 42%
    13:00 +14°C° 0 mm 4 mps 670 mmHg 43%
    14:00 +14°C° 0 mm 4 mps 669 mmHg 45%
    15:00 +13°C° 0 mm 4 mps 669 mmHg 47%
    16:00 +12°C° 0 mm 4 mps 668 mmHg 53%
    17:00 +11°C° 0 mm 3 mps 668 mmHg 59%
    18:00 +10°C° 0 mm 3 mps 667 mmHg 65%
    19:00 +9°C° 0 mm 3 mps 667 mmHg 65%
    20:00 +9°C° 0 mm 3 mps 667 mmHg 66%
    21:00 +9°C° 0 mm 3 mps 667 mmHg 67%
    22:00 +9°C° 0 mm 3 mps 667 mmHg 67%
    23:00 +9°C° 0 mm 3 mps 666 mmHg 68%

    Tomorrow, 17 December, Tuesday

    Time Temperature Precipitation Wind Pressure Humidity
    00:00 +9°C° 0 mm 3 mps 666 mmHg 68%
    01:00 +9°C° 0 mm 3 mps 666 mmHg 67%
    02:00 +9°C° 0 mm 3 mps 665 mmHg 66%
    03:00 +9°C° 0 mm 3 mps 665 mmHg 65%
    04:00 +9°C° 0 mm 3 mps 665 mmHg 65%
    05:00 +8°C° 0 mm 3 mps 664 mmHg 64%
    06:00 +8°C° 0 mm 3 mps 664 mmHg 63%
    07:00 +10°C° 0 mm 4 mps 664 mmHg 57%
    08:00 +10°C° 0 mm 5 mps 665 mmHg 51%
    09:00 +13°C° 0 mm 6 mps 665 mmHg 45%
    10:00 +13°C° 0 mm 9 mps 665 mmHg 39%
    11:00 +14°C° 0 mm 11 mps 664 mmHg 33%
    12:00 +15°C° 0 mm 14 mps 664 mmHg 27%
    13:00 +14°C° 0 mm 13 mps 663 mmHg 30%
    14:00 +13°C° 0 mm 12 mps 662 mmHg 33%
    15:00 +12°C° 0 mm 11 mps 661 mmHg 37%
    16:00 +11°C° 0 mm 8 mps 661 mmHg 43%
    17:00 +10°C° 0 mm 6 mps 661 mmHg 50%
    18:00 +10°C° 0 mm 4 mps 661 mmHg 57%
    19:00 +8°C° 0.1 mm 4 mps 662 mmHg 60%
    20:00 +8°C° 0.1 mm 4 mps 662 mmHg 64%
    21:00 +7°C° 0.1 mm 5 mps 662 mmHg 67%
    22:00 +6°C° 0 mm 4 mps 662 mmHg 72%
    23:00 +5°C° 0 mm 4 mps 662 mmHg 77%

    Day after tomorrow, 18 December, Wednesday

    Time Temperature Precipitation Wind Pressure Humidity
    00:00 +3°C° 0 mm 4 mps 661 mmHg 82%
    01:00 +3°C° 0 mm 4 mps 662 mmHg 82%
    02:00 +2°C° 0 mm 3 mps 662 mmHg 81%
    03:00 +2°C° 0 mm 3 mps 662 mmHg 81%
    04:00 +2°C° 0 mm 3 mps 663 mmHg 82%
    05:00 +2°C° 0 mm 3 mps 663 mmHg 83%
    06:00 +2°C° 0 mm 3 mps 664 mmHg 84%
    07:00 +3°C° 0 mm 3 mps 664 mmHg 80%
    08:00 +3°C° 0 mm 4 mps 665 mmHg 76%
    09:00 +4°C° 0 mm 4 mps 666 mmHg 72%
    10:00 +5°C° 0 mm 4 mps 666 mmHg 69%
    11:00 +6°C° 0 mm 4 mps 666 mmHg 65%
    12:00 +7°C° 0 mm 4 mps 667 mmHg 61%
    13:00 +7°C° 0 mm 4 mps 667 mmHg 62%
    14:00 +7°C° 0 mm 5 mps 667 mmHg 63%
    15:00 +6°C° 0 mm 5 mps 667 mmHg 65%
    16:00 +6°C° 0 mm 4 mps 668 mmHg 67%
    17:00 +5°C° 0 mm 3 mps 668 mmHg 70%
    18:00 +4°C° 0 mm 3 mps 668 mmHg 73%
    19:00 +4°C° 0 mm 3 mps 669 mmHg 73%
    20:00 +4°C° 0 mm 2 mps 669 mmHg 73%
    21:00 +4°C° 0 mm 2 mps 670 mmHg 73%
    22:00 +4°C° 0 mm 2 mps 670 mmHg 70%
    23:00 +4°C° 0 mm 2 mps 670 mmHg 67%

    19 December, Thursday

    Time Temperature Precipitation Wind Pressure Humidity
    00:00 +4°C° 0 mm 2 mps 670 mmHg 64%
    01:00 +4°C° 0 mm 2 mps 670 mmHg 61%
    02:00 +4°C° 0 mm 2 mps 670 mmHg 59%
    03:00 +5°C° 0 mm 1 mps 670 mmHg 57%
    04:00 +5°C° 0 mm 1 mps 670 mmHg 58%
    05:00 +5°C° 0 mm 1 mps 670 mmHg 60%
    06:00 +4°C° 0 mm 2 mps 670 mmHg 61%
    07:00 +6°C° 0 mm 2 mps 671 mmHg 59%
    08:00 +8°C° 0 mm 2 mps 672 mmHg 57%
    09:00 +10°C° 0 mm 2 mps 673 mmHg 56%
    10:00 +12°C° 0 mm 2 mps 673 mmHg 53%
    11:00 +12°C° 0 mm 3 mps 673 mmHg 51%
    12:00 +13°C° 0 mm 3 mps 673 mmHg 48%
    13:00 +13°C° 0 mm 3 mps 673 mmHg 50%
    14:00 +12°C° 0 mm 4 mps 672 mmHg 51%
    15:00 +12°C° 0 mm 4 mps 672 mmHg 53%
    16:00 +11°C° 0 mm 3 mps 672 mmHg 57%
    17:00 +9°C° 0 mm 3 mps 672 mmHg 60%
    18:00 +8°C° 0 mm 3 mps 671 mmHg 64%
    19:00 +8°C° 0 mm 3 mps 672 mmHg 64%
    20:00 +8°C° 0 mm 3 mps 672 mmHg 65%
    21:00 +8°C° 0 mm 3 mps 672 mmHg 65%
    22:00 +7°C° 0 mm 3 mps 672 mmHg 66%
    23:00 +7°C° 0 mm 3 mps 672 mmHg 67%

    20 December, Friday

    Time Temperature Precipitation Wind Pressure Humidity
    00:00 +7°C° 0 mm 3 mps 671 mmHg 67%
    01:00 +7°C° 0 mm 3 mps 671 mmHg 68%
    02:00 +7°C° 0 mm 3 mps 671 mmHg 69%
    03:00 +7°C° 0 mm 3 mps 670 mmHg 69%
    04:00 +5°C° 0 mm 3 mps 670 mmHg 69%
    05:00 +5°C° 0 mm 3 mps 670 mmHg 68%
    06:00 +5°C° 0 mm 3 mps 670 mmHg 68%
    07:00 +7°C° 0 mm 4 mps 670 mmHg 62%
    08:00 +8°C° 0 mm 4 mps 671 mmHg 56%
    09:00 +10°C° 0 mm 5 mps 671 mmHg 50%
    10:00 +11°C° 0 mm 6 mps 671 mmHg 46%
    11:00 +12°C° 0 mm 7 mps 670 mmHg 43%
    12:00 +12°C° 0 mm 8 mps 670 mmHg 39%
    13:00 +12°C° 0 mm 7 mps 670 mmHg 40%
    14:00 +12°C° 0 mm 7 mps 669 mmHg 42%
    15:00 +11°C° 0 mm 6 mps 669 mmHg 43%
    16:00 +10°C° 0 mm 6 mps 668 mmHg 46%
    17:00 +9°C° 0 mm 5 mps 668 mmHg 49%
    18:00 +8°C° 0 mm 4 mps 668 mmHg 53%
    19:00 +8°C° 0 mm 4 mps 668 mmHg 52%
    20:00 +8°C° 0 mm 5 mps 668 mmHg 51%
    21:00 +8°C° 0 mm 5 mps 668 mmHg 50%
    22:00 +8°C° 0 mm 5 mps 668 mmHg 49%
    23:00 +8°C° 0 mm 4 mps 668 mmHg 49%

    21 December, Saturday

    Time Temperature Precipitation Wind Pressure Humidity
    00:00 +8°C° 0 mm 4 mps 667 mmHg 48%
    01:00 +8°C° 0 mm 4 mps 667 mmHg 51%
    02:00 +8°C° 0 mm 4 mps 667 mmHg 55%
    03:00 +8°C° 0 mm 4 mps 667 mmHg 58%
    04:00 +8°C° 0.1 mm 4 mps 667 mmHg 65%
    05:00 +8°C° 0.1 mm 4 mps 667 mmHg 73%
    06:00 +8°C° 0.1 mm 4 mps 667 mmHg 80%
    07:00 +9°C° 0.3 mm 3 mps 667 mmHg 82%
    08:00 +9°C° 0.3 mm 3 mps 668 mmHg 85%
    09:00 +9°C° 0.3 mm 2 mps 668 mmHg 87%
    10:00 +11°C° 0 mm 3 mps 668 mmHg 79%
    11:00 +12°C° 0 mm 4 mps 669 mmHg 71%
    12:00 +14°C° 0 mm 5 mps 669 mmHg 64%
    13:00 +14°C° 0 mm 6 mps 669 mmHg 63%
    14:00 +13°C° 0 mm 6 mps 669 mmHg 62%
    15:00 +12°C° 0 mm 7 mps 669 mmHg 61%
    16:00 +10°C° 0 mm 5 mps 669 mmHg 67%
    17:00 +10°C° 0 mm 3 mps 669 mmHg 73%
    18:00 +9°C° 0 mm 2 mps 670 mmHg 79%
    19:00 +8°C° 0 mm 2 mps 670 mmHg 80%
    20:00 +8°C° 0 mm 2 mps 670 mmHg 80%
    21:00 +9°C° 0 mm 1 mps 670 mmHg 81%
    22:00 +9°C° 0 mm 1 mps 670 mmHg 82%
    23:00 +8°C° 0 mm 2 mps 671 mmHg 82%
    Show more